TimeCST,TemperatureF,Dew PointF,Humidity,Sea Level PressureIn,VisibilityMPH,Wind Direction,Wind SpeedMPH,Gust SpeedMPH,PrecipitationIn,Events,Conditions,WindDirDegrees,DateUTC
12:15 AM,-4.4,-12.3,69,30.08,10.0,Calm,Calm,-,N/A,,Scattered Clouds,0,2014-01-22 06:15:00
12:35 AM,-4.7,-12.3,70,30.07,10.0,Calm,Calm,-,N/A,,Mostly Cloudy,0,2014-01-22 06:35:00
12:55 AM,-3.8,-11.6,69,30.07,10.0,Calm,Calm,-,N/A,,Overcast,0,2014-01-22 06:55:00
1:15 AM,-3.1,-11.0,69,30.05,10.0,Calm,Calm,-,N/A,,Overcast,0,2014-01-22 07:15:00
1:35 AM,-2.2,-10.3,68,30.03,10.0,Calm,Calm,-,N/A,,Overcast,0,2014-01-22 07:35:00
1:55 AM,-2.2,-9.8,70,30.03,10.0,Calm,Calm,-,N/A,,Overcast,0,2014-01-22 07:55:00
2:15 AM,-1.3,-9.6,68,30.01,10.0,Calm,Calm,-,N/A,,Overcast,0,2014-01-22 08:15:00
2:35 AM,-0.8,-9.2,67,30.01,5.0,SSE,3.5,-,N/A,Snow,Light Snow,160,2014-01-22 08:35:00
2:55 AM,-0.4,-8.5,69,30.00,5.0,South,3.5,-,N/A,Snow,Light Snow,170,2014-01-22 08:55:00
3:15 AM,0.3,-7.6,69,30.00,5.0,Calm,Calm,-,N/A,Snow,Light Snow,0,2014-01-22 09:15:00
3:55 AM,1.2,-6.0,72,29.97,3.0,South,3.5,-,N/A,Snow,Light Snow,180,2014-01-22 09:55:00
4:15 AM,1.4,-5.4,73,29.95,3.0,South,4.6,-,N/A,Snow,Light Snow,170,2014-01-22 10:15:00
4:35 AM,1.9,-4.7,74,29.94,3.0,SSE,3.5,-,N/A,Snow,Light Snow,160,2014-01-22 10:35:00
4:55 AM,1.9,-4.2,76,29.93,4.0,SSE,3.5,-,N/A,Snow,Light Snow,150,2014-01-22 10:55:00
5:15 AM,2.7,-3.5,76,29.93,2.0,South,4.6,-,N/A,Snow,Light Snow,180,2014-01-22 11:15:00
5:35 AM,2.8,-3.1,76,29.93,2.5,SSW,3.5,-,N/A,Snow,Light Snow,200,2014-01-22 11:35:00
5:55 AM,3.0,-3.1,76,29.92,2.0,South,4.6,-,N/A,Snow,Light Snow,190,2014-01-22 11:55:00
6:15 AM,3.0,-2.7,77,29.91,1.8,South,4.6,-,N/A,Snow,Light Snow,190,2014-01-22 12:15:00
6:35 AM,3.2,-2.6,77,29.91,1.8,SSW,4.6,-,N/A,Snow,Light Snow,200,2014-01-22 12:35:00
6:55 AM,3.2,-2.6,77,29.91,3.0,SSW,5.8,-,N/A,Snow,Light Snow,200,2014-01-22 12:55:00
7:15 AM,3.6,-2.6,76,29.89,5.0,SSW,5.8,-,N/A,Snow,Light Snow,210,2014-01-22 13:15:00
7:35 AM,3.7,-2.4,76,29.89,7.0,SSW,4.6,-,N/A,,Overcast,210,2014-01-22 13:35:00
7:55 AM,3.9,-2.4,75,29.88,10.0,SSW,4.6,-,N/A,,Overcast,210,2014-01-22 13:55:00
8:15 AM,4.1,-2.2,75,29.88,7.0,SSW,4.6,-,N/A,,Overcast,210,2014-01-22 14:15:00
8:35 AM,4.6,-1.8,75,29.88,10.0,SW,4.6,-,N/A,,Overcast,220,2014-01-22 14:35:00
8:55 AM,5.4,-1.5,73,29.88,7.0,SSW,4.6,-,N/A,,Overcast,210,2014-01-22 14:55:00
9:15 AM,6.1,-1.1,72,29.88,4.0,SW,4.6,-,N/A,,Haze,220,2014-01-22 15:15:00
9:35 AM,6.6,-0.6,72,29.88,4.0,SW,4.6,-,N/A,,Haze,220,2014-01-22 15:35:00
9:55 AM,8.1,0.5,71,29.87,5.0,West,8.1,-,N/A,,Haze,260,2014-01-22 15:55:00
10:15 AM,8.4,-0.2,68,29.87,5.0,West,6.9,-,N/A,,Haze,270,2014-01-22 16:15:00
10:35 AM,8.6,0.1,68,29.87,3.0,West,8.1,-,N/A,,Haze,280,2014-01-22 16:35:00
10:55 AM,9.1,-0.0,66,29.86,3.0,West,6.9,-,N/A,,Haze,280,2014-01-22 16:55:00
11:15 AM,9.3,0.3,67,29.86,2.0,WNW,9.2,-,N/A,Snow,Light Snow,290,2014-01-22 17:15:00
11:35 AM,9.9,-0.2,64,29.85,2.5,West,10.4,-,N/A,,Haze,270,2014-01-22 17:35:00
11:55 AM,9.3,-2.2,60,29.85,2.5,WNW,10.4,17.3,N/A,,Haze,300,2014-01-22 17:55:00
12:15 PM,9.1,-2.4,60,29.85,3.0,WNW,12.7,-,N/A,,Haze,290,2014-01-22 18:15:00
12:35 PM,9.0,-2.9,59,29.85,4.0,WNW,10.4,18.4,N/A,,Haze,300,2014-01-22 18:35:00
12:55 PM,8.4,-2.7,61,29.85,1.8,WNW,15.0,-,N/A,,Haze,300,2014-01-22 18:55:00
1:15 PM,8.1,-2.2,63,29.86,1.5,NW,10.4,19.6,N/A,Snow,Light Snow,310,2014-01-22 19:15:00
1:35 PM,8.2,-0.9,66,29.86,1.8,NW,9.2,18.4,N/A,Snow,Light Snow,320,2014-01-22 19:35:00
1:55 PM,8.1,-2.9,61,29.86,2.5,NW,10.4,18.4,N/A,,Haze,310,2014-01-22 19:55:00
2:15 PM,8.4,-3.5,59,29.88,5.0,WNW,11.5,18.4,N/A,,Haze,300,2014-01-22 20:15:00
2:35 PM,7.5,-6.2,54,29.89,7.0,NNW,15.0,19.6,N/A,,Mostly Cloudy,330,2014-01-22 20:35:00
2:55 PM,8.8,-4.5,55,29.89,4.0,NW,17.3,20.7,N/A,,Haze,320,2014-01-22 20:55:00
3:15 PM,6.8,-3.8,62,29.91,5.0,NW,9.2,16.1,N/A,,Haze,310,2014-01-22 21:15:00
3:35 PM,8.4,-6.9,50,29.92,7.0,WNW,13.8,21.9,N/A,,Mostly Cloudy,300,2014-01-22 21:35:00
3:55 PM,7.3,-6.7,53,29.93,7.0,WNW,13.8,19.6,N/A,,Mostly Cloudy,290,2014-01-22 21:55:00
4:15 PM,6.8,-4.4,60,29.95,5.0,NW,8.1,-,N/A,,Haze,310,2014-01-22 22:15:00
4:35 PM,5.7,-7.8,54,29.96,10.0,WNW,11.5,-,N/A,,Scattered Clouds,300,2014-01-22 22:35:00
4:55 PM,5.2,-8.1,54,29.98,10.0,WNW,9.2,18.4,N/A,,Mostly Cloudy,300,2014-01-22 22:55:00
5:15 PM,4.1,-10.3,51,29.99,10.0,NW,11.5,18.4,N/A,,Scattered Clouds,310,2014-01-22 23:15:00
5:35 PM,3.7,-11.2,50,30.01,10.0,NW,11.5,20.7,N/A,,Clear,310,2014-01-22 23:35:00
5:55 PM,3.2,-12.1,49,30.03,10.0,NW,9.2,19.6,N/A,,Clear,310,2014-01-22 23:55:00
6:15 PM,2.5,-12.1,51,30.04,10.0,NW,8.1,-,N/A,,Scattered Clouds,310,2014-01-23 00:15:00
6:35 PM,2.3,-12.8,49,30.04,10.0,WNW,11.5,16.1,N/A,,Scattered Clouds,300,2014-01-23 00:35:00
6:55 PM,2.3,-13.0,49,30.05,10.0,WNW,10.4,-,N/A,,Mostly Cloudy,290,2014-01-23 00:55:00
7:15 PM,1.9,-12.1,52,30.04,10.0,WNW,16.1,20.7,N/A,,Overcast,300,2014-01-23 01:15:00
7:35 PM,1.9,-10.8,55,30.05,4.0,WNW,17.3,23.0,N/A,,Haze,300,2014-01-23 01:35:00
7:55 PM,1.4,-10.7,57,30.05,4.0,NW,18.4,25.3,N/A,,Haze,310,2014-01-23 01:55:00
8:15 PM,1.2,-10.3,59,30.05,5.0,WNW,16.1,23.0,N/A,,Haze,300,2014-01-23 02:15:00
8:35 PM,1.0,-10.3,59,30.06,5.0,WNW,18.4,26.5,N/A,,Haze,300,2014-01-23 02:35:00
8:55 PM,0.9,-10.3,59,30.06,3.0,WNW,15.0,26.5,N/A,,Haze,300,2014-01-23 02:55:00
9:15 PM,0.5,-11.2,58,30.07,7.0,WNW,16.1,24.2,N/A,,Clear,300,2014-01-23 03:15:00
9:35 PM,0.5,-11.2,58,30.08,7.0,WNW,16.1,28.8,N/A,,Clear,290,2014-01-23 03:35:00
9:55 PM,0.3,-11.2,58,30.09,10.0,WNW,16.1,23.0,N/A,,Clear,300,2014-01-23 03:55:00
10:15 PM,0.3,-11.2,58,30.09,10.0,WNW,11.5,23.0,N/A,,Clear,290,2014-01-23 04:15:00
10:35 PM,0.1,-10.7,60,30.10,10.0,WNW,13.8,20.7,N/A,,Clear,300,2014-01-23 04:35:00
10:55 PM,0.1,-10.5,61,30.11,10.0,WNW,15.0,19.6,N/A,,Clear,300,2014-01-23 04:55:00
11:15 PM,0.1,-10.1,62,30.13,10.0,WNW,12.7,23.0,N/A,,Clear,300,2014-01-23 05:15:00
11:35 PM,0.3,-9.4,64,30.13,7.0,WNW,13.8,19.6,N/A,,Clear,300,2014-01-23 05:35:00
11:55 PM,0.5,-8.3,66,30.14,4.0,WNW,16.1,21.9,N/A,,Haze,300,2014-01-23 05:55:00